Weather History for Lawrence, MA

Change the Weather History Date:

Wednesday, July 3, 2013

  Actual Average Record
Temperature  
Mean Temperature 74 °F -  
Max Temperature 89 °F 80 °F 97 °F (1949)
Min Temperature 60 °F 60 °F 48 °F (1929)
Cooling Degree Days 10    
Growing Degree Days 24 (Base 50)    
Moisture  
Dew Point 65 °F    
Average Humidity 74    
Maximum Humidity 90    
Minimum Humidity 52    
Precipitation  
Precipitation 0.00 in - - ()
Sea Level Pressure  
Sea Level Pressure 30.19 in    
Wind  
Wind Speed 4 mph (SW)    
Max Wind Speed 14 mph    
Max Gust Speed 21 mph    
Visibility 7 miles    
Events      
Averages and records for this station are not official NWS values.
T = Trace of Precipitation, MM = Missing Value Source: NWS Daily Summary

Daily Weather History Graph

Daily Weather History Graph

Search for Another Location

Airport:

Trip Planner

Search our weather history database for the weather conditions in past years. The results will help you decide how hot, cold, wet, or windy it might be!

Date:

Astronomy

Jul. 03, 2013 Rise Set
Actual Time 5:11 AM EDT 8:25 PM EDT
Civil Twilight 4:36 AM EDT 9:00 PM EDT
Nautical Twilight 3:51 AM EDT 9:45 PM EDT
Astronomical Twilight 2:57 AM EDT 10:39 PM EDT
Moon 1:50 AM EDT (7/3) 4:31 PM EDT (7/3)
Length of Visible Light 16h 24m
Length of Day
15h 14m
Waning Crescent, 18% of the Moon is Illuminated
Jul 3
Waning Crescent
Jul 8
New
Jul 15
First Quarter
Jul 22
Full
Jul 29
Last Quarter

Hourly Weather History & Observations

Time (EDT) Temp. Heat Index Dew Point Humidity Pressure Visibility Wind Dir Wind Speed Gust Speed Precip Events Conditions
12:54 AM 61.0 °F - 57.9 °F 90% 30.22 in 3.0 mi Calm Calm - N/A   Overcast
1:09 AM 60.8 °F - 57.2 °F 88% 30.22 in 2.5 mi North 4.6 mph - N/A   Overcast
1:54 AM 61.0 °F - 57.9 °F 90% 30.21 in 2.5 mi Calm Calm - N/A   Overcast
2:07 AM 60.8 °F - 57.2 °F 88% 30.21 in 4.0 mi Calm Calm - N/A   Overcast
2:54 AM 61.0 °F - 57.9 °F 90% 30.21 in 4.0 mi Calm Calm - N/A   Overcast
3:54 AM 62.1 °F - 59.0 °F 90% 30.20 in 4.0 mi Calm Calm - N/A   Overcast
4:54 AM 62.1 °F - 59.0 °F 90% 30.19 in 2.5 mi Calm Calm - N/A   Overcast
5:05 AM 62.6 °F - 59.0 °F 88% 30.19 in 3.0 mi Calm Calm - N/A   Overcast
5:36 AM 62.6 °F - 59.0 °F 88% 30.19 in 4.0 mi Calm Calm - N/A   Overcast
5:54 AM 63.0 °F - 59.0 °F 87% 30.20 in 4.0 mi Calm Calm - N/A   Overcast
6:54 AM 64.0 °F - 60.1 °F 87% 30.22 in 1.0 mi Calm Calm - N/A   Overcast
7:26 AM 66.2 °F - 60.8 °F 83% 30.21 in 4.0 mi Calm Calm - N/A   Haze
7:54 AM 69.1 °F - 62.1 °F 78% 30.21 in 5.0 mi Variable 4.6 mph - N/A   Haze
8:54 AM 75.9 °F - 66.9 °F 74% 30.21 in 9.0 mi WSW 6.9 mph - N/A   Clear
9:54 AM 81.0 °F 84.4 °F 70.0 °F 69% 30.21 in 10.0 mi WSW 8.1 mph - N/A   Clear
10:54 AM 82.9 °F 87.0 °F 70.0 °F 65% 30.20 in 10.0 mi West 9.2 mph - N/A   Scattered Clouds
11:08 AM 82.4 °F 86.3 °F 69.8 °F 66% 30.21 in 10.0 mi WSW 9.2 mph - N/A   Mostly Cloudy
11:34 AM 82.4 °F 86.3 °F 69.8 °F 66% 30.21 in 10.0 mi WSW 8.1 mph 17.3 mph N/A   Partly Cloudy
11:54 AM 82.9 °F 86.5 °F 69.1 °F 63% 30.20 in 10.0 mi WSW 13.8 mph 17.3 mph N/A   Clear
12:54 PM 86.0 °F 90.7 °F 70.0 °F 59% 30.19 in 10.0 mi WSW 10.4 mph - N/A   Partly Cloudy
1:54 PM 86.0 °F 90.7 °F 70.0 °F 59% 30.18 in 10.0 mi West 11.5 mph 16.1 mph N/A   Scattered Clouds
2:54 PM 87.1 °F 91.3 °F 69.1 °F 55% 30.17 in 10.0 mi WSW 12.7 mph - N/A   Mostly Cloudy
3:54 PM 88.0 °F 92.9 °F 70.0 °F 55% 30.15 in 10.0 mi SW 11.5 mph - N/A   Scattered Clouds
4:54 PM 89.1 °F 93.7 °F 69.1 °F 52% 30.14 in 10.0 mi WSW 13.8 mph - N/A   Scattered Clouds
5:54 PM 88.0 °F 92.1 °F 69.1 °F 53% 30.14 in 10.0 mi SW 11.5 mph 20.7 mph N/A   Clear
6:54 PM 87.1 °F 92.0 °F 70.0 °F 57% 30.14 in 10.0 mi SW 10.4 mph - N/A   Clear
7:54 PM 84.9 °F 89.4 °F 70.0 °F 61% 30.14 in 10.0 mi SSW 8.1 mph - N/A   Partly Cloudy
8:54 PM 82.0 °F 86.3 °F 71.1 °F 69% 30.16 in 10.0 mi SSW 9.2 mph - N/A   Clear
9:54 PM 80.1 °F 83.6 °F 71.1 °F 74% 30.18 in 10.0 mi SSW 6.9 mph - N/A   Clear
10:54 PM 79.0 °F - 71.1 °F 77% 30.18 in 10.0 mi SSW 9.2 mph - N/A   Clear
11:54 PM 78.1 °F - 71.1 °F 79% 30.19 in 10.0 mi SSW 6.9 mph - N/A   Clear